[[{"header":{"parameterUnit":"m.s-1","parameterCategory":1,"la1":30.2991,"la2":30.254,"lo1":-89.0895,"lo2":-89.0444,"dy":0.0017,"dx":0.0017,"nx":28,"ny":28,"refTime":"2024-04-02T09:00:00:Z","depth":0,"parameterNumber":2,"parameterNumberName":"U-component_of_WINDS"},"data":[0,0,0,0,0,0,0,0,0,0,0,0,0,0,0,0,0,0,0,0,0,0,0,0,0,0,0,0,0,0,0,0,0,0,0,0,0,0,0,0,0,0,0,0,0,0,0,0,0,0,0,0,0,0,0,0,0,0,-0.7094,-0.7094,0,-0.7128,-0.7128,-0.7128,-0.7171,-0.7172,-0.7172,-0.7173,-0.7205,-0.7205,-0.7206,0,0,0,0,0,0,0,0,0,0,0,0,0,-0.7063,-0.7063,-0.7094,-0.7094,-0.7094,-0.7128,-0.7128,-0.7128,-0.7171,-0.7172,-0.7172,-0.7173,-0.7205,-0.7205,-0.7206,0,0,0,0,0,0,0,0,0,0,0,0,0,-0.7085,-0.7064,-0.7093,-0.712,-0.7122,-0.7127,-0.7128,-0.7129,-0.7171,-0.7172,-0.7173,-0.7174,-0.7205,-0.7205,-0.7206,-0.7187,0,0,-0.7207,-0.7207,0,0,0,0,0,0,0,0,-0.7083,-0.7086,-0.7115,-0.7118,-0.7121,-0.7146,-0.7129,-0.7148,-0.717,-0.7152,-0.7173,-0.7174,-0.7185,-0.7187,-0.7191,-0.7189,-0.719,-0.7207,-0.7207,-0.7207,-0.7207,0,0,0,0,0,0,0,-0.7082,-0.7084,-0.7107,-0.7116,-0.7119,-0.7129,-0.7133,-0.7133,-0.7162,-0.7154,-0.7157,-0.7161,-0.7186,-0.719,-0.7192,-0.7191,-0.7207,-0.7207,-0.7207,-0.7207,-0.7175,-0.7174,0,0,0,0,0,0,-0.7077,-0.7083,-0.7106,-0.7108,-0.7104,-0.7129,-0.7133,-0.7137,-0.7162,-0.7167,-0.716,-0.7162,-0.7189,-0.7191,-0.7193,-0.7172,-0.7207,-0.7207,-0.7208,-0.7176,-0.7174,-0.7173,0,0,0,0,0,0,-0.7076,-0.7078,-0.7105,-0.7096,-0.71,-0.7128,-0.7132,-0.7137,-0.7141,-0.7167,-0.7172,-0.7158,-0.719,-0.7193,-0.7188,-0.7174,-0.7208,-0.7208,-0.7177,-0.7175,-0.7174,-0.7131,0,0,0,0,0,0,-0.7075,-0.7078,-0.7071,-0.7096,-0.7101,-0.71,-0.7131,-0.7137,-0.7142,-0.7146,-0.7167,-0.7171,-0.7191,-0.7188,-0.7189,-0.7175,-0.7208,-0.7178,-0.7176,-0.7174,-0.7133,-0.7128,-0.7123,0,0,0,0,0,-0.7074,-0.7058,-0.7071,-0.7073,-0.7094,-0.7099,-0.7102,-0.7125,-0.7141,-0.7134,-0.7151,-0.7171,-0.7176,-0.7187,-0.7188,-0.7175,-0.7179,-0.7177,-0.7174,-0.7136,-0.7129,-0.7123,0,0,0,0,0,0,-0.703,-0.7061,-0.7076,-0.7068,-0.7081,-0.7106,-0.7098,-0.7117,-0.7125,-0.7128,-0.7156,-0.7161,-0.7153,-0.7164,-0.7175,-0.7158,-0.718,-0.7178,-0.7151,-0.7144,-0.7139,-0.7136,-0.7208,0,0,0,0,0,-0.7019,-0.7022,-0.7049,-0.7039,-0.7045,-0.707,-0.7074,-0.7091,-0.7105,-0.711,-0.7126,-0.7138,-0.7142,-0.7144,-0.715,-0.7136,-0.714,-0.7127,-0.7122,-0.7118,-0.7115,-0.7107,-0.7101,-0.7165,-0.7165,-0.7165,0,0,-0.6997,-0.7015,-0.7015,-0.7031,-0.7042,-0.7043,-0.7074,-0.7074,-0.7075,-0.711,-0.7106,-0.7119,-0.7134,-0.7125,-0.7121,-0.7133,-0.7098,-0.7114,-0.7111,-0.711,-0.7104,-0.7098,-0.7092,-0.7164,-0.7164,-0.7164,0,0,-0.6958,-0.6972,-0.6965,-0.6976,-0.6994,-0.7011,-0.7009,-0.7032,-0.7042,-0.7039,-0.7065,-0.7066,-0.7073,-0.7083,-0.7088,-0.7053,-0.7071,-0.7054,-0.7025,-0.7018,-0.7013,-0.7008,-0.6994,-0.6989,-0.7051,-0.7051,-0.7051,0,-0.6928,-0.6931,-0.6958,-0.6956,-0.6962,-0.6995,-0.6987,-0.6997,-0.7015,-0.7017,-0.7031,-0.704,-0.7053,-0.7046,-0.7037,-0.7041,-0.7039,-0.705,-0.7011,-0.7007,-0.7004,-0.699,-0.6985,-0.7049,-0.7049,-0.7049,-0.7049,0,-0.6893,-0.6894,-0.6886,-0.6904,-0.6909,-0.6904,-0.693,-0.6932,-0.6949,-0.6964,-0.6961,-0.6978,-0.6987,-0.6987,-0.7003,-0.6982,-0.6988,-0.7006,-0.7029,-0.6995,-0.6982,-0.6978,-0.7045,-0.7046,-0.7047,-0.7047,0,0,-0.6824,-0.6858,-0.6854,-0.6862,-0.6884,-0.6886,-0.6882,-0.6892,-0.6892,-0.6904,-0.6901,-0.6906,-0.6923,-0.693,-0.6948,-0.6941,-0.691,-0.696,-0.6961,-0.6949,-0.6886,-0.6871,-0.6865,-0.6923,-0.6923,-0.6922,-0.6884,0,-0.6787,-0.6784,-0.6808,-0.6798,-0.6799,-0.683,-0.6827,-0.684,-0.6855,-0.6858,-0.6874,-0.6877,-0.69,-0.6903,-0.6899,-0.6915,-0.6898,-0.6918,-0.6919,-0.6919,-0.6912,-0.6859,-0.6843,-0.6806,-0.688,-0.6879,-0.6878,0,-0.6743,-0.6753,-0.6742,-0.6765,-0.6766,-0.6763,-0.6774,-0.6776,-0.6791,-0.6803,-0.681,-0.6831,-0.6828,-0.6852,-0.6848,-0.6861,-0.6863,-0.6871,-0.6871,-0.687,-0.6895,-0.6855,-0.6795,-0.6789,-0.6872,-0.6872,-0.6873,0,-0.6692,-0.6703,-0.6698,-0.6704,-0.6731,-0.6728,-0.6738,-0.6755,-0.6759,-0.6768,-0.677,-0.6779,-0.6783,-0.6789,-0.6811,-0.6827,-0.6804,-0.683,-0.6812,-0.6811,-0.6804,-0.6804,-0.6742,-0.6809,-0.6809,-0.6809,-0.6809,0,-0.6647,-0.6639,-0.6676,-0.6672,-0.6664,-0.6692,-0.6683,-0.6697,-0.6711,-0.671,-0.6739,-0.6737,-0.6768,-0.6769,-0.6787,-0.678,-0.6782,-0.679,-0.6795,-0.6787,-0.6785,-0.6787,-0.6789,-0.6807,-0.6808,-0.6808,-0.6808,0,-0.6588,-0.6613,-0.6609,-0.6635,-0.6641,-0.6633,-0.6655,-0.6653,-0.667,-0.6668,-0.667,-0.6696,-0.6699,-0.6723,-0.6732,-0.6744,-0.6729,-0.674,-0.6724,-0.6727,-0.6707,-0.6708,-0.6642,-0.6635,-0.6708,-0.6707,-0.6707,0,-0.6557,-0.6551,-0.6577,-0.6579,-0.6588,-0.6591,-0.6595,-0.6624,-0.6627,-0.6644,-0.6639,-0.6645,-0.6651,-0.6655,-0.6674,-0.6681,-0.669,-0.6667,-0.6691,-0.6683,-0.6688,-0.6687,-0.6686,-0.6661,-0.666,-0.6659,-0.6659,0,-0.6498,-0.651,-0.6516,-0.6526,-0.653,-0.6539,-0.655,-0.655,-0.6581,-0.6583,-0.6587,-0.6592,-0.6601,-0.6606,-0.6616,-0.6627,-0.6647,-0.6651,-0.6647,-0.6638,-0.6628,-0.6631,-0.6708,-0.6652,-0.6653,-0.6653,-0.6654,-0.6654,-0.645,-0.6446,-0.6464,-0.6469,-0.648,-0.6489,-0.6488,-0.6506,-0.651,-0.652,-0.6536,-0.6538,-0.6553,-0.6569,-0.6577,-0.6578,-0.6591,-0.6585,-0.6583,-0.6581,-0.6576,-0.663,-0.6581,-0.6581,-0.6581,-0.6581,-0.6581,0,-0.6391,-0.6404,-0.6409,-0.6423,-0.6427,-0.6448,-0.646,-0.6462,-0.6463,-0.6476,-0.6482,-0.6486,-0.6491,-0.6511,-0.6518,-0.6515,-0.6525,-0.6516,-0.6515,-0.6517,-0.6566,-0.6568,-0.6508,-0.6508,-0.6508,-0.6508,-0.6508,-0.6508,-0.636,-0.6355,-0.6369,-0.6369,-0.6383,-0.6385,-0.639,-0.6398,-0.6409,-0.6413,-0.6417,-0.6431,-0.6446,-0.6455,-0.646,-0.6466,-0.6466,-0.6454,-0.6462,-0.6507,-0.6514,-0.652,-0.6522,-0.6454,-0.6454,-0.6414,-0.6413,-0.6413]},{"header":{"parameterUnit":"m.s-1","parameterCategory":1,"la1":30.2991,"la2":30.254,"lo1":-89.0895,"lo2":-89.0444,"dy":0.0017,"dx":0.0017,"nx":28,"ny":28,"refTime":"2024-04-02T09:00:00:Z","depth":0,"parameterNumber":3,"parameterNumberName":"V-component_of_WINDS"},"data":[0,0,0,0,0,0,0,0,0,0,0,0,0,0,0,0,0,0,0,0,0,0,0,0,0,0,0,0,0,0,0,0,0,0,0,0,0,0,0,0,0,0,0,0,0,0,0,0,0,0,0,0,0,0,0,0,0,0,5.1086,5.1087,0,5.1206,5.1207,5.1209,5.1192,5.119,5.1188,5.1186,5.131,5.1315,5.132,0,0,0,0,0,0,0,0,0,0,0,0,0,5.0842,5.0847,5.1086,5.1087,5.1089,5.1206,5.1207,5.1209,5.1192,5.119,5.1187,5.1185,5.1308,5.1314,5.132,0,0,0,0,0,0,0,0,0,0,0,0,0,5.0954,5.0848,5.1085,5.1094,5.1096,5.1205,5.1207,5.1209,5.1193,5.1189,5.1186,5.1184,5.1306,5.1313,5.1321,5.1429,0,0,5.1345,5.1348,0,0,0,0,0,0,0,0,5.0947,5.0963,5.1092,5.1094,5.1096,5.1181,5.1167,5.1283,5.1193,5.1156,5.1186,5.1182,5.1269,5.128,5.1309,5.1435,5.144,5.1346,5.135,5.1354,5.1356,0,0,0,0,0,0,0,5.094,5.0957,5.1133,5.1093,5.1096,5.1093,5.1105,5.1189,5.1228,5.1159,5.1158,5.1172,5.127,5.1302,5.1312,5.1442,5.1345,5.1352,5.1357,5.136,5.1665,5.1668,0,0,0,0,0,0,5.093,5.0951,5.113,5.1137,5.1013,5.1099,5.1113,5.1157,5.1227,5.1235,5.1175,5.1171,5.129,5.1303,5.1316,5.1449,5.1354,5.1361,5.1365,5.1661,5.1665,5.1669,0,0,0,0,0,0,5.0924,5.0946,5.1125,5.1044,5.1066,5.1107,5.1156,5.1161,5.1192,5.1239,5.1246,5.12,5.1288,5.1305,5.1402,5.1453,5.1364,5.1371,5.1657,5.1663,5.1667,5.1714,0,0,0,0,0,0,5.0917,5.0944,5.0985,5.1045,5.1071,5.1208,5.1159,5.1165,5.1206,5.1202,5.1265,5.1272,5.1287,5.139,5.1409,5.1462,5.1377,5.1653,5.166,5.1666,5.1709,5.1721,5.1731,0,0,0,0,0,5.0909,5.0994,5.0987,5.1009,5.1123,5.1211,5.1226,5.1241,5.121,5.1252,5.1282,5.127,5.1444,5.14,5.1422,5.1477,5.165,5.1658,5.1665,5.1703,5.1718,5.1731,0,0,0,0,0,0,5.0939,5.1002,5.0996,5.1102,5.1151,5.1208,5.1262,5.1256,5.1315,5.1309,5.1326,5.134,5.1438,5.1467,5.1417,5.1586,5.1542,5.1555,5.1564,5.1579,5.159,5.1581,5.1384,0,0,0,0,0,5.0958,5.1024,5.1075,5.1164,5.1189,5.1221,5.126,5.1267,5.1319,5.134,5.1377,5.1428,5.1494,5.1538,5.1601,5.1712,5.1726,5.1761,5.1772,5.1781,5.1792,5.1854,5.1871,5.1695,5.1694,5.1694,0,0,5.0998,5.1041,5.1081,5.1171,5.121,5.1279,5.1239,5.1313,5.1364,5.1351,5.1445,5.1474,5.1532,5.1637,5.1684,5.1664,5.1844,5.1791,5.1798,5.1804,5.1864,5.1881,5.1896,5.17,5.1699,5.1698,0,0,5.1107,5.1145,5.1224,5.1264,5.1324,5.1344,5.1363,5.1421,5.144,5.1534,5.1526,5.1587,5.17,5.1743,5.1779,5.1903,5.1895,5.1923,5.1983,5.2043,5.2057,5.207,5.2116,5.2132,5.1934,5.1934,5.1934,0,5.115,5.1252,5.1265,5.1341,5.1381,5.1372,5.1453,5.1491,5.1568,5.1597,5.1572,5.1715,5.1753,5.1868,5.1898,5.1927,5.1951,5.1917,5.2054,5.2066,5.2078,5.2123,5.214,5.1937,5.1937,5.1937,5.1936,0,5.1303,5.1374,5.143,5.1506,5.1552,5.1629,5.1655,5.17,5.1703,5.1727,5.1823,5.1869,5.1942,5.1969,5.1973,5.2085,5.2071,5.205,5.2006,5.2098,5.214,5.2157,5.1942,5.1941,5.194,5.1939,0,0,5.1435,5.1516,5.1537,5.1572,5.1637,5.1692,5.1769,5.184,5.188,5.1933,5.1999,5.2095,5.2076,5.2118,5.2126,5.2178,5.2276,5.2151,5.2153,5.2175,5.2405,5.2422,5.2441,5.227,5.2274,5.2276,5.2401,0,5.1551,5.1688,5.1702,5.1825,5.1891,5.1884,5.1951,5.1998,5.2022,5.2082,5.2108,5.2177,5.2146,5.2171,5.2223,5.2253,5.2323,5.2244,5.2334,5.2337,5.2321,5.2463,5.2481,5.2596,5.2417,5.242,5.2422,0,5.1706,5.1764,5.1893,5.195,5.1978,5.2038,5.2105,5.2162,5.2216,5.223,5.2276,5.2277,5.2358,5.2309,5.2421,5.2367,5.2404,5.2425,5.243,5.244,5.2386,5.2479,5.2633,5.2651,5.2447,5.2445,5.2444,0,5.1792,5.1902,5.1994,5.2024,5.2091,5.2134,5.2164,5.2215,5.2257,5.2315,5.2343,5.241,5.2447,5.2499,5.2519,5.2482,5.263,5.2583,5.2645,5.2645,5.2679,5.2677,5.2843,5.2699,5.2699,5.2698,5.2698,0,5.1922,5.2002,5.2034,5.2091,5.218,5.2195,5.2283,5.2311,5.2357,5.2419,5.2416,5.2475,5.2496,5.2559,5.2574,5.2666,5.2682,5.2696,5.27,5.2698,5.2696,5.2724,5.2717,5.2703,5.2702,5.2701,5.27,0,5.2034,5.2059,5.2159,5.2214,5.223,5.2294,5.2342,5.2397,5.2419,5.2499,5.2518,5.2554,5.2627,5.2652,5.274,5.2751,5.2858,5.2853,5.284,5.2841,5.2903,5.2897,5.3094,5.3122,5.2957,5.2959,5.296,0,5.2117,5.2178,5.224,5.2282,5.2314,5.238,5.2423,5.244,5.2486,5.2552,5.2599,5.2672,5.2731,5.2849,5.2884,5.2952,5.295,5.3014,5.2961,5.2957,5.2954,5.2951,5.2958,5.3025,5.3027,5.3028,5.303,0,5.2261,5.227,5.2332,5.2399,5.245,5.2504,5.2555,5.2589,5.2614,5.2665,5.274,5.2786,5.2877,5.295,5.3019,5.3051,5.3046,5.3046,5.3064,5.3064,5.3055,5.3063,5.287,5.3042,5.3041,5.304,5.3039,5.3039,5.2362,5.2417,5.2469,5.2539,5.2579,5.2627,5.2682,5.2712,5.2774,5.285,5.2856,5.2937,5.299,5.3083,5.3118,5.3182,5.3164,5.319,5.3197,5.3204,5.321,5.3042,5.3195,5.3194,5.3194,5.3194,5.3194,0,5.2508,5.2541,5.2605,5.2677,5.2732,5.272,5.2777,5.2824,5.2896,5.2945,5.3003,5.309,5.3161,5.3201,5.3271,5.3316,5.3315,5.3334,5.3332,5.334,5.3221,5.3199,5.3333,5.3333,5.3333,5.3333,5.3333,5.3333,5.259,5.2683,5.2698,5.2811,5.2843,5.2923,5.2957,5.3001,5.3041,5.3138,5.3197,5.3222,5.3268,5.3342,5.3407,5.3416,5.3444,5.3465,5.3473,5.3362,5.3348,5.3334,5.3314,5.347,5.347,5.3587,5.3588,5.3589]}]]